Location: Arthez
(43.0833°N, 0.2500°W)
Time: 08:24:26
(UTC+00:00)

CZ-2C R/B - Pass Details

Date: 23 October 2021
Orbit: 387 x 573 km, 35.0° (Epoch: 02 December)

Event Time Altitude Azimuth Distance (km) Brightness Sun altitude
Rises 17:27:33 0° 253° (WSW) 2,555 7.5 -4.7°
Reaches altitude 10° 17:30:09 10° 238° (WSW) 1,633 5.1 -5.2°
Maximum altitude 17:33:03 22° 187° (S) 1,048 3.0 -5.7°
Drops below altitude 10° 17:35:50 10° 134° (SE) 1,545 3.3 -6.2°
Enters shadow 17:37:40 - 121° (ESE) 2,175 3.9 -6.6°
